Regional Weather Roundup
Issued by NWS

Home | Current Version | Previous Version | Graphics & Text | Print | Product List | Glossary On
Versions: 1 2 3 4 5 6 7 8 9 10 11 12 13 14 15 16 17 18 19 20 21 22 23 24 25 26 27
000
ASUS45 KCYS 221510
RWRWY

WYOMING REGIONAL WEATHER ROUNDUP
NATIONAL WEATHER SERVICE CHEYENNE WY
900 AM MDT TUE MAY 22 2018

NOTE:  "FAIR" INDICATES FEW OR NO CLOUDS BELOW 12,000 FEET
WITH NO SIGNIFICANT WEATHER AND/OR OBSTRUCTIONS TO VISIBILITY.

WYZ001-221600-
YELLOWSTONE NATIONAL PARK

CITY           SKY/WX    TMP DP  RH WIND       PRES   REMARKS
LK YELLOWSTONE   N/A     39  35  86 CALM      30.17S
W YELLOWSTONE  NOT AVBL

$$
WYZ002>013-054>058-071-098>099-221600-
NORTHERN WYOMING

CITY           SKY/WX    TMP DP  RH WIND       PRES   REMARKS
JACKSON        FAIR      46  38  73 MISG        N/A
CODY           FAIR      60  45  57 CALM      30.07R
GREYBULL       FAIR      61  48  62 N5        30.00S
WORLAND        FAIR      58  48  69 CALM      30.02R
SHERIDAN       FAIR      63  52  67 CALM      30.02S
BUFFALO        FAIR      60  46  59 CALM      30.06S
GILLETTE         N/A     63  52  67 MISG      30.02S
NEWCASTLE      FAIR      70  39  32 E5        30.01S

$$
WYZ014>020-022>026-101>103-221600-
CENTRAL WYOMING

CITY           SKY/WX    TMP DP  RH WIND       PRES   REMARKS
BIG PINEY      FAIR      55  37  50 NE7       30.07R
PINEDALE       FAIR      55  36  47 W16       30.07F
DUBOIS         FAIR      46  36  66 NW6       30.11F
LANDER         FAIR      54  46  74 CALM      30.04R
RIVERTON       FAIR      57  47  69 N3        30.05R
CASPER         FAIR      60  49  66 NE6       30.04R
DOUGLAS        FAIR      63  55  75 SE8       30.03S

$$
WYZ021-027>030-104>119-221600-
SOUTHERN WYOMING

CITY           SKY/WX    TMP DP  RH WIND       PRES   REMARKS
EVANSTON       CLOUDY    48  41  76 NE10      30.07R
KEMMERER       FAIR      55  36  47 SE9       30.07R
FORT BRIDGER   PTSUNNY   52  41  65 CALM      30.09R
ROCK SPRINGS   PTSUNNY   53  41  63 S3        30.05R
DIXON          FAIR      54  34  46 CALM      30.04S
RAWLINS        FAIR      58  43  57 E6        30.05S
SARATOGA       FAIR      55  37  50 CALM      30.05F
LARAMIE        FAIR      58  49  72 S3        30.07F
CHEYENNE       FAIR      60  55  83 NE7       30.04R
TORRINGTON     FAIR      63  57  81 NW3       29.98R
PINE BLUFFS    CLOUDY    54  54 100 NE8       30.01S FOG

$$




USA.gov is the U.S. government's official web portal to all federal, state and local government web resources and services.